Orlando, FL

5:05 PM EDT on April 25, 2018 (GMT -0400)
Executive

Weather History for KORL - November, 2011

Change the Weather History Date:

Sunday, November 27, 2011

  Actual Average Record
Temperature  
Mean Temperature 71 °F -  
Max Temperature 80 °F 73 °F 82 °F (2007)
Min Temperature 62 °F 55 °F 44 °F (2013)
Cooling Degree Days 6    
Growing Degree Days 21 (Base 50)    
Moisture  
Dew Point 58 °F    
Average Humidity 68    
Maximum Humidity 88    
Minimum Humidity 39    
Precipitation  
Precipitation 0.00 in - - ()
Sea Level Pressure  
Sea Level Pressure 30.07 in    
Wind  
Wind Speed 6 mph (ESE)    
Max Wind Speed 17 mph    
Max Gust Speed 22 mph    
Visibility 10 miles    
Events      
Averages and records for this station are not official NWS values.
T = Trace of Precipitation, MM = Missing Value Source: NWS Daily Summary

Daily Weather History Graph

Daily Weather History Graph

Search for Another Location

Airport or City:

Astronomy

Nov. 27, 2011 Rise Set
Actual Time 6:57 AM EST 5:28 PM EST
Civil Twilight 6:31 AM EST 5:53 PM EST
Nautical Twilight 6:02 AM EST 6:22 PM EST
Astronomical Twilight 5:34 AM EST 6:51 PM EST
Moon 9:18 AM EST (11/27) 8:06 PM EST (11/27)
Length of Visible Light 11h 22m
Length of Day
10h 31m
Waxing Crescent, 8% of the Moon is Illuminated
Nov 27
Waxing Crescent
Dec 2
First Quarter
Dec 10
Full
Dec 17
Last Quarter
Dec 24
New

Hourly Weather History & Observations

Time (EST) Temp. Heat Index Dew Point Humidity Pressure Visibility Wind Dir Wind Speed Gust Speed Precip Events Conditions
12:53 AM 64.9 °F - 57.9 °F 78% 30.15 in 10.0 mi East 4.6 mph - N/A   Mostly Cloudy
1:53 AM 62.1 °F - 57.9 °F 86% 30.14 in 10.0 mi ESE 4.6 mph - N/A   Clear
2:53 AM 62.1 °F - 57.0 °F 84% 30.13 in 10.0 mi East 3.5 mph - N/A   Clear
3:53 AM 62.1 °F - 57.0 °F 84% 30.12 in 10.0 mi East 5.8 mph - N/A   Overcast
4:53 AM 64.0 °F - 57.9 °F 80% 30.12 in 10.0 mi ENE 4.6 mph - N/A   Overcast
5:53 AM 66.9 °F - 55.9 °F 68% 30.12 in 10.0 mi Calm Calm - N/A   Overcast
6:53 AM 64.9 °F - 59.0 °F 81% 30.13 in 10.0 mi Calm Calm - N/A   Overcast
7:53 AM 66.9 °F - 60.1 °F 79% 30.14 in 10.0 mi Calm Calm - N/A   Overcast
8:53 AM 69.1 °F - 60.1 °F 73% 30.15 in 10.0 mi East 5.8 mph - N/A   Overcast
10:53 AM 77.0 °F - 57.9 °F 52% 30.14 in 10.0 mi SSE 17.3 mph - N/A   Scattered Clouds
11:53 AM 79.0 °F - 53.1 °F 40% 30.11 in 10.0 mi SE 10.4 mph 21.9 mph N/A   Mostly Cloudy
12:53 PM 80.1 °F 79.9 °F 53.1 °F 39% 30.07 in 10.0 mi SE 12.7 mph 20.7 mph N/A   Clear
1:53 PM 80.1 °F 80.1 °F 55.0 °F 42% 30.04 in 10.0 mi SE 12.7 mph 20.7 mph N/A   Partly Cloudy
2:53 PM 78.1 °F - 55.0 °F 45% 30.03 in 10.0 mi ESE 12.7 mph - N/A   Mostly Cloudy
3:53 PM 79.0 °F - 52.0 °F 39% 30.02 in 10.0 mi South 10.4 mph - N/A   Partly Cloudy
4:34 PM 75.2 °F - 57.2 °F 53% 30.01 in 10.0 mi East 12.7 mph 20.7 mph N/A   Clear
4:53 PM 75.0 °F - 57.0 °F 53% 30.03 in 10.0 mi ESE 10.4 mph - N/A   Clear
5:53 PM 72.0 °F - 57.9 °F 61% 30.02 in 10.0 mi ESE 11.5 mph - N/A   Partly Cloudy
6:53 PM 71.1 °F - 59.0 °F 66% 30.02 in 10.0 mi ESE 11.5 mph - N/A   Partly Cloudy
7:53 PM 68.0 °F - 59.0 °F 73% 30.03 in 10.0 mi SE 6.9 mph - N/A   Clear
8:53 PM 64.9 °F - 59.0 °F 81% 30.04 in 10.0 mi SE 4.6 mph - N/A   Clear
9:53 PM 64.9 °F - 59.0 °F 81% 30.04 in 10.0 mi SE 3.5 mph - N/A   Partly Cloudy
10:28 PM 64.4 °F - 59.0 °F 83% 30.02 in 10.0 mi ESE 3.5 mph - N/A   Mostly Cloudy
10:53 PM 64.0 °F - 60.1 °F 87% 30.02 in 10.0 mi ESE 4.6 mph - N/A   Overcast
11:15 PM 64.4 °F - 60.8 °F 88% 30.01 in 10.0 mi SSE 4.6 mph - N/A   Mostly Cloudy
11:53 PM 66.9 °F - 62.1 °F 84% 30.00 in 10.0 mi SSE 4.6 mph - N/A   Overcast